Jefferson, NC

5:39 PM EST on December 07, 2019 (GMT -0500)
Ashe County

Weather History for KGEV - May, 2019

Change the Weather History Date:

Saturday, May 11, 2019

  Actual Average Record
Temperature  
Mean Temperature 62 °F -  
Max Temperature 65 °F 69 °F 80 °F (1979)
Min Temperature 58 °F 42 °F 28 °F (1966)
Degree Days  
Heating Degree Days 4    
Growing Degree Days 12 (Base 50)    
Moisture  
Dew Point 60 °F    
Average Humidity 97    
Maximum Humidity 100    
Minimum Humidity 85    
Precipitation  
Precipitation 0.12 in - - ()
Sea Level Pressure  
Sea Level Pressure 30.03 in    
Wind  
Wind Speed 1 mph (SSE)    
Max Wind Speed 7 mph    
Max Gust Speed -    
Visibility 8 miles    
Events Fog , Rain    
Averages and records for this station are not official NWS values.
T = Trace of Precipitation, MM = Missing Value Source: NWS Daily Summary

Daily Weather History Graph

Daily Weather History Graph

Search for Another Location

Airport or City:

Astronomy

May. 11, 2019 Rise Set
Actual Time 6:22 AM EDT 8:22 PM EDT
Civil Twilight 5:54 AM EDT 8:50 PM EDT
Nautical Twilight 5:19 AM EDT 9:25 PM EDT
Astronomical Twilight 4:42 AM EDT 10:02 PM EDT
Moon 12:29 PM EDT (5/11) 2:01 AM EDT (5/11)
Length of Visible Light 14h 56m
Length of Day
13h 59m
Waxing Crescent, 46% of the Moon is Illuminated
May 11
Waxing Crescent
May 11
First Quarter
May 18
Full
May 26
Last Quarter
Jun 3
New

Hourly Weather History & Observations

Time (EDT) Temp. Dew Point Humidity Pressure Visibility Wind Dir Wind Speed Gust Speed Precip Events Conditions
12:05 AM 61.0 °F 60.1 °F 97% 30.13 in 10.0 mi Calm Calm - N/A   Scattered Clouds
12:25 AM 59.7 °F 59.5 °F 99% 30.13 in 5.0 mi Calm Calm - N/A   Scattered Clouds
12:45 AM 59.9 °F 59.9 °F 100% 30.13 in 3.0 mi Calm Calm - N/A   Scattered Clouds
1:05 AM 60.4 °F 59.5 °F 97% 30.13 in 10.0 mi Calm Calm - N/A   Clear
1:25 AM 60.4 °F 59.7 °F 97% 30.12 in 10.0 mi Calm Calm - N/A   Clear
1:45 AM 59.0 °F 59.0 °F 100% 30.12 in 1.2 mi Calm Calm - N/A   Scattered Clouds
2:05 AM 58.8 °F 58.5 °F 99% 30.11 in 4.0 mi Calm Calm - N/A   Scattered Clouds
2:25 AM 59.0 °F 58.8 °F 99% 30.10 in 10.0 mi Calm Calm - N/A   Scattered Clouds
2:45 AM 58.5 °F 58.5 °F 100% 30.10 in 0.5 mi Calm Calm - N/A Fog Fog
3:05 AM 59.0 °F 59.0 °F 100% 30.09 in 10.0 mi Calm Calm - N/A   Scattered Clouds
3:25 AM 59.5 °F 59.0 °F 98% 30.09 in 10.0 mi Calm Calm - N/A   Clear
3:45 AM 59.2 °F 58.8 °F 99% 30.10 in 7.0 mi Calm Calm - N/A   Clear
4:05 AM 60.6 °F 58.8 °F 94% 30.10 in 10.0 mi Calm Calm - N/A   Mostly Cloudy
4:25 AM 59.9 °F 59.0 °F 97% 30.09 in 10.0 mi Calm Calm - N/A   Mostly Cloudy
4:45 AM 59.0 °F 58.8 °F 99% 30.09 in 7.0 mi Calm Calm - N/A   Mostly Cloudy
5:05 AM 59.4 °F 58.8 °F 98% 30.08 in 10.0 mi Calm Calm - N/A   Scattered Clouds
5:25 AM 59.5 °F 59.0 °F 98% 30.07 in 10.0 mi Calm Calm - N/A   Clear
5:45 AM 58.8 °F 58.6 °F 99% 30.07 in 2.5 mi Calm Calm - N/A   Scattered Clouds
6:05 AM 58.6 °F 58.6 °F 100% 30.06 in 3.0 mi Calm Calm - N/A   Overcast
6:25 AM 59.0 °F 59.0 °F 100% 30.06 in 7.0 mi Calm Calm - N/A   Overcast
6:45 AM 59.4 °F 59.0 °F 99% 30.06 in 10.0 mi Calm Calm - N/A   Overcast
7:05 AM 59.2 °F 59.2 °F 100% 30.04 in 3.0 mi Calm Calm - N/A   Overcast
7:25 AM 59.9 °F 59.7 °F 99% 30.06 in 4.0 mi Calm Calm - N/A   Overcast
7:45 AM 60.1 °F 59.9 °F 99% 30.08 in 3.0 mi Calm Calm - N/A Rain Light Rain
8:05 AM 60.3 °F 60.3 °F 100% 30.09 in 1.5 mi Calm Calm - 0.01 in Rain Rain
8:25 AM 60.3 °F 60.3 °F 100% 30.09 in 0.5 mi Calm Calm - 0.02 in Rain Rain
8:45 AM 60.1 °F 60.1 °F 100% 30.09 in 1.0 mi Calm Calm - 0.03 in Rain Rain
9:05 AM 60.3 °F 60.3 °F 100% 30.09 in 0.2 mi Calm Calm - 0.01 in Rain Rain
9:25 AM 59.4 °F 59.4 °F 100% 30.08 in 4.0 mi Calm Calm - 0.03 in Rain Light Rain
9:45 AM 59.7 °F 59.2 °F 98% 30.07 in 10.0 mi Calm Calm - 0.03 in Rain Light Rain
10:05 AM 60.1 °F 59.2 °F 97% 30.07 in 10.0 mi Calm Calm - N/A Rain Light Rain
10:25 AM 60.4 °F 59.9 °F 98% 30.07 in 10.0 mi Calm Calm - 0.01 in   Overcast
10:45 AM 60.8 °F 60.3 °F 98% 30.07 in 7.0 mi Calm Calm - 0.01 in Rain Light Rain
11:05 AM 61.3 °F 60.4 °F 97% 30.06 in 7.0 mi SSE 4.6 mph - N/A   Overcast
11:25 AM 60.8 °F 60.3 °F 98% 30.06 in 7.0 mi SSE 4.6 mph - N/A Rain Light Rain
11:45 AM 60.8 °F 60.4 °F 99% 30.06 in 10.0 mi SSE 5.8 mph - N/A   Overcast
12:05 PM 60.4 °F 60.1 °F 99% 30.06 in 7.0 mi South 4.6 mph - N/A Rain Light Rain
12:25 PM 59.9 °F 59.9 °F 100% 30.06 in 3.0 mi SSE 4.6 mph - 0.02 in Rain Light Rain
12:45 PM 60.4 °F 60.1 °F 99% 30.05 in 10.0 mi South 5.8 mph - 0.02 in   Drizzle
1:05 PM 61.0 °F 60.6 °F 99% 30.04 in 7.0 mi SSE 5.8 mph - N/A Rain Rain
1:25 PM 60.8 °F 60.4 °F 99% 30.03 in 7.0 mi Calm Calm - N/A Rain Rain
1:45 PM 60.8 °F 60.4 °F 99% 30.03 in 7.0 mi Calm Calm - 0.01 in Rain Light Rain
2:05 PM 61.7 °F 61.2 °F 98% 30.02 in 10.0 mi SE 3.5 mph - N/A   Overcast
2:25 PM 62.4 °F 61.3 °F 96% 30.02 in 10.0 mi South 3.5 mph - N/A   Overcast
2:45 PM 62.8 °F 61.0 °F 94% 30.01 in 10.0 mi SSE 5.8 mph - N/A   Overcast
3:05 PM 63.1 °F 61.2 °F 93% 30.00 in 10.0 mi Calm Calm - N/A   Overcast
3:25 PM 64.2 °F 61.0 °F 89% 29.99 in 10.0 mi South 4.6 mph - N/A   Overcast
3:45 PM 64.8 °F 61.9 °F 90% 29.98 in 10.0 mi South 4.6 mph - N/A   Overcast
4:05 PM 64.6 °F 61.2 °F 89% 29.97 in 10.0 mi South 4.6 mph - N/A   Overcast
4:25 PM 64.4 °F 60.6 °F 88% 29.97 in 10.0 mi South 6.9 mph - N/A   Overcast
4:45 PM 65.5 °F 61.0 °F 85% 29.97 in 10.0 mi South 6.9 mph - N/A   Overcast
5:05 PM 64.9 °F 61.2 °F 88% 29.96 in 10.0 mi SSE 3.5 mph - N/A   Mostly Cloudy
5:25 PM 64.4 °F 60.8 °F 88% 29.95 in 10.0 mi SSE 4.6 mph - N/A   Mostly Cloudy
5:45 PM 64.4 °F 61.0 °F 89% 29.95 in 10.0 mi SSE 4.6 mph - N/A   Mostly Cloudy
6:05 PM 63.5 °F 61.7 °F 94% 29.95 in 10.0 mi SE 3.5 mph - N/A   Scattered Clouds
6:25 PM 63.7 °F 61.7 °F 93% 29.94 in 10.0 mi SE 4.6 mph - N/A   Scattered Clouds
7:05 PM 63.1 °F 61.2 °F 93% 29.93 in 10.0 mi Calm Calm - N/A   Scattered Clouds
7:25 PM 62.8 °F 61.2 °F 94% 29.94 in 10.0 mi SSE 3.5 mph - N/A   Scattered Clouds
7:45 PM 61.7 °F 60.8 °F 97% 29.95 in 10.0 mi SSE 3.5 mph - N/A   Mostly Cloudy
8:05 PM 61.3 °F 60.6 °F 97% 29.96 in 10.0 mi SSE 5.8 mph - N/A   Overcast
8:25 PM 61.2 °F 60.8 °F 99% 29.96 in 10.0 mi Calm Calm - N/A   Overcast
8:45 PM 60.8 °F 60.6 °F 99% 29.95 in 10.0 mi Calm Calm - N/A   Overcast
9:05 PM 60.8 °F 60.4 °F 99% 29.94 in 5.0 mi Calm Calm - N/A   Overcast
9:25 PM 60.8 °F 60.4 °F 99% 29.93 in 10.0 mi SSE 3.5 mph - N/A   Overcast
9:45 PM 60.8 °F 60.3 °F 98% 29.95 in 10.0 mi Calm Calm - N/A   Overcast
10:05 PM 60.1 °F 59.9 °F 99% 29.94 in 10.0 mi Calm Calm - N/A   Overcast
10:25 PM 60.1 °F 59.9 °F 99% 29.95 in 10.0 mi Calm Calm - N/A   Overcast
10:45 PM 60.3 °F 59.9 °F 99% 29.95 in 10.0 mi Calm Calm - N/A   Overcast
11:05 PM 60.1 °F 59.9 °F 99% 29.93 in 10.0 mi Calm Calm - N/A   Overcast
11:25 PM 60.1 °F 60.1 °F 100% 29.93 in 7.0 mi Calm Calm - N/A   Drizzle
11:45 PM 60.3 °F 60.3 °F 100% 29.93 in 1.8 mi South 3.5 mph - 0.02 in Rain Heavy Rain